Weather History for Tuscaloosa, AL

Change the Weather History Date:

Friday, September 20, 2013

  Actual Average Record
Temperature  
Mean Temperature 79 °F 74 °F  
Max Temperature 91 °F 86 °F 100 °F (2010)
Min Temperature 67 °F 62 °F 46 °F (1981)
Degree Days  
Heating Degree Days 0 0  
Month to date heating degree days 0 0  
Since 1 July heating degree days 0 0  
Cooling Degree Days 13    
Growing Degree Days 28 (Base 50)    
Moisture  
Dew Point 67 °F    
Average Humidity 71    
Maximum Humidity 94    
Minimum Humidity 47    
Precipitation  
Precipitation 0.03 in 0.11 in 1.38 in (2009)
Month to date precipitation 0.11 2.35  
Year to date precipitation 38.93 38.22  
Sea Level Pressure  
Sea Level Pressure 29.95 in    
Wind  
Wind Speed 5 mph (SSE)    
Max Wind Speed 15 mph    
Max Gust Speed 21 mph    
Visibility 9 miles    
Events Rain    
T = Trace of Precipitation, MM = Missing Value Source: NWS Daily Summary

Daily Weather History Graph

Daily Weather History Graph

Search for Another Location

Airport:

Trip Planner

Search our weather history database for the weather conditions in past years. The results will help you decide how hot, cold, wet, or windy it might be!

Date:

Astronomy

Sep. 20, 2013 Rise Set
Actual Time 6:37 AM CDT 6:49 PM CDT
Civil Twilight 6:12 AM CDT 7:14 PM CDT
Nautical Twilight 5:43 AM CDT 7:43 PM CDT
Astronomical Twilight 5:14 AM CDT 8:12 PM CDT
Moon 7:30 PM CDT (9/20) 7:45 AM CDT (9/20)
Length of Visible Light 13h 01m
Length of Day
12h 12m
Full, 98% of the Moon is Illuminated
Sep 20
Full
Sep 26
Last Quarter
Oct 4
New
Oct 11
First Quarter
Oct 18
Full

Hourly Weather History & Observations

Time (CDT) Temp. Heat Index Dew Point Humidity Pressure Visibility Wind Dir Wind Speed Gust Speed Precip Events Conditions
12:53 AM 70.0 °F - 66.0 °F 87% 30.04 in 9.0 mi Calm Calm - N/A   Clear
1:53 AM 69.1 °F - 64.9 °F 87% 30.04 in 10.0 mi Calm Calm - N/A   Clear
2:53 AM 69.1 °F - 64.9 °F 87% 30.04 in 10.0 mi Calm Calm - N/A   Clear
3:53 AM 68.0 °F - 64.0 °F 87% 30.03 in 9.0 mi Calm Calm - N/A   Clear
4:53 AM 66.9 °F - 64.0 °F 90% 30.02 in 9.0 mi Calm Calm - N/A   Mostly Cloudy
5:53 AM 69.1 °F - 63.0 °F 81% 30.03 in 10.0 mi Calm Calm - N/A   Clear
6:53 AM 69.1 °F - 63.0 °F 81% 30.03 in 9.0 mi Calm Calm - N/A   Clear
7:53 AM 73.0 °F - 64.9 °F 76% 30.03 in 9.0 mi Calm Calm - N/A   Clear
8:53 AM 77.0 °F - 63.0 °F 62% 30.03 in 10.0 mi SE 3.5 mph - N/A   Clear
9:53 AM 80.1 °F 81.7 °F 64.0 °F 58% 30.02 in 10.0 mi ESE 8.1 mph - N/A   Clear
10:53 AM 84.0 °F 86.3 °F 66.0 °F 55% 30.01 in 10.0 mi Variable 5.8 mph - N/A   Clear
11:53 AM 88.0 °F 90.7 °F 66.9 °F 49% 29.98 in 10.0 mi South 9.2 mph 17.3 mph N/A   Clear
12:53 PM 89.1 °F 92.1 °F 66.9 °F 48% 29.95 in 10.0 mi South 9.2 mph 19.6 mph N/A   Scattered Clouds
1:53 PM 89.1 °F 92.1 °F 66.9 °F 48% 29.91 in 10.0 mi ESE 4.6 mph - N/A   Clear
2:53 PM 90.0 °F 92.4 °F 66.0 °F 45% 29.88 in 10.0 mi South 10.4 mph 16.1 mph N/A   Partly Cloudy
3:53 PM 89.1 °F 91.3 °F 66.0 °F 46% 29.86 in 10.0 mi SSW 11.5 mph - N/A   Clear
4:53 PM 87.1 °F 89.9 °F 66.9 °F 51% 29.85 in 10.0 mi South 8.1 mph - N/A   Clear
5:53 PM 86.0 °F 88.8 °F 66.9 °F 53% 29.84 in 10.0 mi SE 6.9 mph - N/A   Clear
6:53 PM 84.9 °F 87.6 °F 66.9 °F 55% 29.85 in 10.0 mi SE 6.9 mph - N/A   Clear
7:53 PM 80.1 °F 83.6 °F 71.1 °F 74% 29.86 in 10.0 mi Variable 3.5 mph - 0.00 in Rain Light Rain
8:53 PM 77.0 °F - 72.0 °F 84% 29.88 in 7.0 mi SSW 5.8 mph - 0.00 in Rain Light Rain
9:53 PM 75.9 °F - 73.0 °F 91% 29.88 in 9.0 mi South 3.5 mph - 0.00 in Rain Light Rain
10:53 PM 75.9 °F - 73.0 °F 91% 29.88 in 7.0 mi South 3.5 mph - 0.02 in Rain Light Rain
11:53 PM 75.0 °F - 73.0 °F 94% 29.85 in 6.0 mi South 4.6 mph - 0.00 in Rain Light Rain